Wind_Speed
20 19 20 18 18 17 15 13 16 13 15 17 18 20 17 15 14 15 15 14 15 17 18 17 19 19 19 19 20 21 22 25 32 32 27 26 28 28 28 31 28 28 27
16 19 17 14 12 14 15 16 14 15 15 16 18 15 13 12 10 13 15 14 16 17 18 18 18 18 19 19 21 22 25 25 28 33 29 27 28 25 28 28 26 27 27
14 13 9 9 12 11 10 12 12 13 12 7 7 7 8 10 12 13 14 15 16 16 16 17 18 19 19 21 22 24 24 24 25 28 30 25 24 25 27 27 30 27 26
8 7 7 5 5 4 7 8 9 9 7 8 11 12 10 12 12 11 14 15 16 16 17 18 19 19 20 22 22 21 20 22 24 22 25 25 26 25 22 22 23 22 25
8 7 6 5 3 3 5 5 6 8 11 14 13 10 10 10 13 18 15 14 17 17 19 18 18 19 20 22 24 23 23 22 21 22 27 25 25 25 24 22 23 23 22
11 9 6 4 2 2 3 6 10 13 14 12 10 10 10 11 15 17 19 20 16 18 18 17 16 18 16 21 21 24 24 22 20 22 27 27 26 23 23 22 22 21 23
10 8 7 5 2 3 7 10 11 11 10 9 9 9 11 14 17 18 21 19 15 16 16 16 17 17 22 21 25 26 24 19 20 21 20 19 21 23 23 24 22 22 24
11 9 7 3 2 7 9 10 10 8 8 9 8 9 9 16 20 22 24 16 14 16 15 16 19 22 20 24 27 28 26 19 17 14 18 22 23 26 25 24 26 25 28
11 7 3 2 5 6 7 9 10 9 7 8 10 11 12 14 23 26 26 17 16 17 17 18 22 21 23 24 32 31 25 13 10 15 17 21 24 18 19 19 20 28 39
8 4 2 5 7 8 8 9 8 6 7 8 9 10 13 12 20 22 24 20 22 21 17 20 23 24 27 28 28 25 20 13 17 16 19 19 18 19 19 20 22 35 44
4 1 3 8 9 7 7 6 6 7 8 9 11 11 11 16 18 20 21 22 22 21 20 24 26 25 27 25 21 18 18 20 21 18 16 17 16 17 20 20 24 37 45
5 2 5 6 3 3 5 7 9 9 9 10 11 11 11 13 19 22 21 21 21 20 20 24 26 26 24 21 18 15 15 18 17 16 17 17 20 24 22 24 25 35 47
3 2 3 2 2 4 6 8 7 9 9 9 11 11 12 12 13 21 23 22 22 20 20 23 24 25 23 18 13 14 15 17 19 17 18 20 22 24 26 28 31 41 51
5 4 3 3 4 4 6 7 7 8 8 9 10 11 12 12 14 19 21 21 19 19 20 17 20 21 19 21 13 12 15 17 18 18 21 21 22 23 24 26 34 46 55
5 5 7 7 5 5 4 4 4 7 9 9 10 10 10 12 18 19 19 19 21 23 20 19 23 20 23 23 21 21 22 18 18 19 20 22 22 23 24 27 33 43 49
10 12 10 6 5 4 3 2 5 7 10 12 14 14 10 15 16 15 17 17 18 18 16 20 23 19 21 20 20 22 19 20 20 21 20 21 23 23 25 28 31 38 45
13 10 9 10 3 3 3 2 3 10 15 17 16 16 15 15 16 16 15 16 19 17 17 18 20 21 22 21 19 19 20 21 22 21 21 22 23 23 25 30 39 39 43
12 11 9 11 5 3 3 1 2 5 5 8 13 17 18 15 16 17 16 17 15 17 16 17 19 20 18 19 19 20 21 21 22 22 22 22 23 25 26 29 36 44 41
14 12 9 8 6 5 2 1 2 4 5 7 7 11 17 14 19 20 19 13 15 15 17 17 17 17 18 18 19 19 20 22 23 22 22 23 24 25 27 28 34 39 41
12 14 11 7 4 4 3 1 2 3 5 6 7 8 12 12 9 10 12 13 13 14 15 16 17 18 18 19 20 20 20 22 23 22 23 22 23 25 27 28 29 34 40
10 10 10 7 6 5 4 3 2 1 3 5 6 10 12 11 10 10 11 12 13 13 14 15 16 17 18 19 20 20 20 21 23 24 23 23 24 27 26 26 27 29 34
10 7 6 7 7 7 5 4 3 2 2 2 4 7 10 8 8 9 10 11 12 13 14 15 16 18 19 19 20 20 20 22 23 24 24 22 25 27 26 26 26 27 27
10 9 8 7 7 9 5 4 4 3 2 0 2 3 4 5 6 7 9 10 11 13 14 15 16 18 18 18 19 19 19 23 24 23 23 21 25 26 25 26 25 25 25
9 7 7 6 6 5 6 6 5 8 5 2 2 3 2 3 4 7 8 9 10 12 13 14 16 18 19 19 19 18 19 21 21 23 20 20 22 24 23 24 24 24 24
9 8 7 7 6 6 6 5 6 5 5 4 4 4 2 3 4 6 7 8 10 11 13 14 16 17 19 20 20 18 18 17 17 18 21 20 19 22 21 22 24 22 23
8 7 7 7 7 7 7 7 6 6 5 5 4 3 1 1 3 5 6 8 9 10 13 13 16 17 21 20 21 18 18 16 16 16 21 17 18 19 20 20 22 22 22
Wind_Direction
234 235 239 242 253 260 260 260 260 259 266 277 284 290 294 295 293 293 302 303 296 301 301 302 298 300 300 297 296 298 295 295 295 298 298 297 294 292 292 295 292 287 285
230 240 246 250 247 252 262 264 275 275 290 299 296 297 299 304 305 306 307 303 302 302 303 302 303 303 299 302 301 295 294 296 296 298 300 301 296 293 295 300 292 291 283
235 246 233 228 256 248 255 270 290 299 304 307 314 323 314 309 305 303 304 304 304 304 304 303 304 303 300 299 295 297 296 294 293 296 301 304 304 302 300 298 296 289 289
210 190 216 210 202 222 261 287 296 304 314 317 314 317 320 314 317 302 315 314 310 306 307 306 306 301 300 298 297 290 293 294 302 303 301 304 308 308 308 312 313 294 290
187 180 183 196 219 267 298 308 314 316 315 320 324 327 325 330 280 307 320 318 310 309 308 304 303 298 326 318 305 300 297 299 304 297 303 306 309 310 308 307 305 308 311
157 162 182 203 228 262 303 313 323 329 331 335 338 334 332 281 312 320 321 322 314 312 309 309 310 318 298 303 298 299 297 298 300 302 309 308 309 312 314 306 310 317 314
169 170 169 173 190 307 326 330 332 336 341 352 342 339 319 307 326 332 333 336 325 318 317 315 313 308 310 299 317 319 320 308 297 311 306 306 312 321 304 305 302 298 298
162 162 163 177 304 326 330 338 347 360 359 352 338 342 349 320 330 338 345 344 333 328 327 326 317 329 329 323 327 324 317 306 303 304 311 311 312 316 311 306 302 305 307
152 152 160 315 318 330 338 346 345 348 359 0 346 347 340 334 332 336 339 349 334 337 334 331 335 331 336 334 333 331 327 309 306 310 318 315 307 310 319 310 317 321 316
154 171 267 317 338 345 345 342 350 12 352 6 358 351 345 343 334 341 339 347 343 344 343 341 341 331 330 336 337 333 340 330 324 323 321 328 330 325 327 303 305 324 328
166 217 339 352 341 339 343 355 9 359 354 355 353 1 348 342 342 352 346 348 351 352 349 349 344 341 336 330 328 335 343 339 337 333 326 333 327 326 322 312 319 323 327
210 334 339 327 321 345 357 352 356 357 353 358 355 5 351 359 341 345 347 348 356 358 351 349 345 338 333 328 326 318 328 339 331 324 330 333 331 329 328 323 319 334 338
150 288 294 324 352 15 5 17 19 4 14 360 354 354 350 351 342 343 351 352 5 2 353 347 347 349 339 326 314 330 336 329 328 335 330 329 326 329 325 329 336 339 345
168 209 179 105 81 41 47 34 19 14 12 0 354 355 353 350 340 355 357 4 359 353 350 350 351 351 351 5 353 354 350 347 343 334 328 327 326 326 328 334 338 356 356
154 135 113 103 95 43 48 45 42 18 20 14 5 3 353 351 356 358 357 357 360 350 349 348 354 352 2 6 7 5 4 356 346 341 336 334 333 332 337 341 349 1 3
149 135 130 99 94 123 91 6 21 20 22 16 10 12 5 0 360 0 357 356 2 356 360 354 3 0 3 4 2 360 355 352 346 345 341 339 336 339 340 347 3 3 4
154 150 142 118 150 131 106 98 333 350 4 2 3 5 3 5 3 3 359 357 2 13 1 358 3 7 9 4 357 357 354 351 350 347 347 343 343 342 345 347 6 4 7
154 155 138 129 155 145 132 79 15 32 16 348 345 353 349 353 359 2 5 20 12 12 7 3 4 4 360 0 359 357 355 353 353 352 350 350 349 349 348 347 347 358 6
171 158 150 143 157 179 165 90 10 16 7 355 4 359 337 16 7 5 19 22 22 11 10 11 7 7 4 2 359 358 357 353 354 354 353 354 354 355 351 350 349 353 4
165 169 160 156 194 178 225 248 320 355 358 355 1 356 356 26 7 12 12 18 28 16 9 7 5 2 2 2 359 0 358 356 357 357 356 356 356 358 353 353 352 354 358
176 172 167 178 202 208 223 249 263 310 344 353 4 354 10 42 10 16 27 17 18 18 8 7 4 0 358 359 1 360 358 356 358 359 359 354 359 356 356 356 356 356 356
183 179 183 190 210 217 222 236 245 253 311 347 12 357 29 29 23 15 19 19 17 15 9 7 5 0 358 358 357 357 356 357 6 4 0 359 2 355 357 358 358 360 0
182 179 201 199 197 212 225 216 215 210 208 16 68 58 37 32 23 16 15 17 14 15 12 8 8 3 360 1 357 358 353 359 7 7 359 11 1 356 1 359 0 1 3
182 191 198 199 201 204 210 198 206 194 176 160 116 94 73 45 28 23 13 10 14 13 10 7 4 3 1 2 358 360 353 2 7 14 16 13 357 357 3 1 4 4 5
188 199 197 205 217 201 207 186 193 185 185 172 153 131 99 45 21 12 13 8 10 11 8 7 2 3 360 359 1 5 4 6 8 15 29 17 357 360 7 5 6 6 9
200 211 208 206 209 205 192 200 197 190 196 172 156 154 148 44 29 16 0 1 11 9 9 5 3 6 359 360 4 9 12 13 15 28 30 8 5 4 12 10 11 13 14
Height
1551 1554 1555 1557 1558 1559 1560 1560 1559 1559 1558 1557 1557 1556 1555 1553 1552 1550 1547 1544 1543 1540 1537 1534 1531 1528 1525 1522 1520 1516 1513 1509 1501 1497 1496 1492 1487 1484 1480 1475 1472 1468 1466
1547 1548 1551 1553 1554 1555 1554 1554 1553 1553 1554 1554 1552 1551 1550 1549 1547 1545 1542 1541 1538 1535 1533 1530 1526 1523 1520 1517 1514 1511 1507 1502 1497 1489 1487 1483 1479 1476 1472 1467 1463 1460 1457
1542 1545 1547 1548 1549 1550 1550 1550 1551 1551 1550 1551 1551 1549 1547 1546 1544 1541 1538 1536 1534 1531 1528 1524 1521 1518 1514 1512 1507 1504 1500 1496 1491 1484 1477 1475 1471 1468 1463 1460 1455 1453 1449
1538 1542 1544 1545 1547 1547 1547 1548 1548 1548 1548 1547 1547 1546 1544 1542 1541 1539 1536 1533 1531 1527 1524 1520 1517 1513 1509 1504 1500 1496 1492 1487 1482 1477 1474 1469 1465 1462 1457 1453 1447 1444 1442
1535 1538 1541 1543 1544 1545 1546 1546 1547 1546 1546 1545 1543 1542 1541 1540 1534 1532 1530 1529 1526 1522 1519 1515 1512 1507 1502 1497 1493 1489 1485 1480 1477 1473 1468 1465 1460 1456 1453 1449 1444 1440 1437
1534 1537 1539 1541 1543 1544 1545 1545 1545 1544 1542 1542 1541 1540 1539 1534 1532 1530 1526 1522 1521 1517 1513 1508 1505 1503 1497 1492 1488 1484 1479 1475 1472 1468 1464 1460 1455 1452 1447 1444 1440 1436 1431
1533 1536 1538 1540 1542 1543 1543 1543 1542 1541 1540 1540 1540 1539 1534 1530 1529 1526 1522 1518 1515 1513 1508 1503 1499 1498 1490 1485 1480 1476 1472 1469 1466 1462 1458 1456 1451 1448 1444 1440 1437 1434 1431
1532 1534 1537 1539 1539 1540 1541 1541 1539 1539 1538 1538 1537 1535 1534 1527 1523 1519 1517 1514 1512 1508 1504 1499 1494 1489 1484 1478 1474 1470 1466 1464 1461 1458 1454 1450 1446 1442 1439 1435 1431 1428 1425
1532 1535 1537 1538 1539 1538 1537 1537 1536 1536 1535 1535 1534 1530 1528 1526 1519 1515 1512 1510 1509 1504 1500 1495 1488 1484 1479 1474 1469 1463 1458 1456 1455 1453 1448 1445 1442 1438 1435 1430 1427 1422 1414
1533 1535 1537 1538 1538 1537 1536 1534 1534 1535 1534 1532 1530 1527 1526 1522 1517 1513 1510 1506 1502 1499 1496 1491 1486 1480 1475 1470 1466 1460 1455 1452 1450 1447 1445 1440 1436 1434 1431 1426 1422 1416 1407
1533 1533 1535 1536 1536 1536 1536 1534 1534 1533 1532 1530 1528 1525 1525 1520 1515 1511 1506 1502 1498 1495 1491 1487 1482 1477 1471 1466 1463 1460 1455 1450 1447 1444 1441 1438 1434 1431 1427 1422 1418 1410 1398
1529 1531 1530 1533 1535 1535 1532 1531 1531 1530 1531 1529 1527 1526 1524 1519 1514 1510 1505 1501 1498 1494 1490 1486 1480 1474 1469 1464 1461 1458 1455 1450 1447 1443 1439 1435 1431 1426 1423 1416 1411 1403 1391
1524 1528 1529 1528 1532 1533 1530 1531 1532 1530 1529 1528 1526 1523 1522 1520 1516 1507 1502 1499 1497 1493 1489 1483 1478 1472 1467 1462 1459 1456 1452 1449 1445 1441 1438 1433 1429 1422 1417 1410 1403 1394 1378
1519 1526 1525 1524 1529 1530 1532 1532 1531 1531 1529 1528 1526 1523 1520 1518 1512 1504 1499 1496 1495 1493 1488 1483 1477 1472 1467 1462 1457 1453 1451 1448 1445 1441 1435 1431 1425 1421 1415 1408 1398 1385 1367
1520 1525 1528 1526 1527 1528 1528 1529 1530 1528 1526 1526 1523 1522 1518 1515 1510 1505 1499 1495 1493 1491 1487 1483 1476 1471 1465 1460 1456 1453 1450 1449 1445 1439 1435 1430 1425 1419 1413 1406 1396 1384 1371
1517 1520 1522 1527 1529 1530 1529 1528 1529 1527 1523 1523 1522 1519 1518 1513 1509 1505 1501 1497 1493 1491 1489 1482 1476 1471 1466 1462 1459 1455 1453 1449 1444 1439 1435 1430 1424 1418 1412 1405 1394 1386 1373
1517 1516 1518 1520 1531 1531 1530 1531 1531 1524 1522 1522 1520 1518 1517 1513 1509 1505 1499 1496 1494 1491 1491 1485 1479 1473 1468 1466 1463 1458 1454 1449 1444 1440 1435 1430 1423 1417 1412 1404 1396 1387 1376
1514 1518 1521 1517 1528 1530 1529 1529 1530 1527 1527 1526 1521 1520 1517 1513 1509 1506 1501 1496 1497 1496 1492 1487 1481 1477 1474 1468 1463 1459 1455 1451 1446 1441 1436 1430 1425 1419 1412 1406 1399 1392 1382
1511 1515 1521 1521 1525 1527 1527 1527 1528 1526 1526 1526 1523 1520 1519 1514 1509 1507 1502 1499 1497 1497 1494 1490 1485 1480 1475 1471 1466 1461 1457 1453 1447 1442 1437 1431 1426 1421 1416 1410 1403 1396 1389
1514 1514 1518 1519 1522 1525 1527 1527 1526 1524 1524 1524 1522 1518 1515 1516 1515 1510 1510 1504 1499 1498 1496 1492 1488 1483 1478 1473 1468 1462 1459 1454 1448 1443 1437 1432 1428 1425 1419 1414 1408 1401 1393
1516 1512 1515 1519 1522 1522 1523 1524 1523 1523 1523 1523 1521 1516 1516 1515 1517 1514 1507 1507 1503 1499 1497 1493 1491 1486 1481 1475 1469 1464 1460 1456 1449 1443 1438 1434 1431 1428 1423 1418 1412 1406 1399
1517 1516 1515 1518 1520 1520 1521 1522 1522 1522 1522 1521 1520 1518 1517 1519 1516 1516 1512 1507 1505 1501 1497 1494 1491 1487 1482 1476 1471 1466 1462 1456 1450 1445 1439 1435 1435 1431 1426 1421 1415 1409 1404
1513 1514 1518 1517 1517 1517 1518 1519 1519 1519 1519 1519 1517 1517 1518 1518 1516 1515 1511 1507 1505 1501 1498 1495 1492 1489 1484 1479 1473 1468 1464 1457 1451 1446 1442 1439 1439 1435 1429 1424 1419 1414 1409
1513 1515 1516 1517 1518 1517 1517 1516 1517 1516 1517 1517 1516 1515 1516 1516 1514 1511 1512 1509 1505 1503 1499 1497 1493 1489 1485 1480 1474 1469 1463 1458 1453 1449 1444 1443 1443 1438 1433 1428 1423 1418 1413
1510 1513 1513 1515 1516 1516 1515 1517 1517 1515 1515 1515 1514 1514 1516 1516 1516 1514 1511 1509 1506 1504 1501 1498 1495 1491 1486 1480 1473 1468 1464 1460 1456 1452 1448 1446 1445 1441 1436 1432 1427 1422 1417
1509 1511 1512 1512 1514 1514 1513 1515 1515 1515 1516 1514 1515 1516 1517 1516 1514 1513 1514 1510 1507 1505 1502 1500 1496 1493 1486 1480 1473 1469 1465 1461 1457 1454 1451 1451 1447 1443 1438 1435 1430 1426 1421